Tracking 31027 objects as of 18-Jul-2025
HD Live streaming from Space Station
objects crossing your sky now

BREEZE-KM R/B

Track BREEZE-KM R/B now!
10-day predictions


NORAD ID: 42970
Int'l Code: 2017-064B
Perigee: 395.1 km
Apogee: 663.7 km
Inclination: 98.7 °
Period: 95.1 minutes
Semi major axis: 6900 km
RCS: Unknown
Launch date: October 13, 2017
Source: Commonwealth of Independent States (former USSR) (CIS)
Launch site: PLESETSK MISSILE AND SPACE COMPLEX (PKMTR)

Note: This is a ROCKET BODY
Your satellite tracking list
Your tracking list is empty




NASA's NSSDC Master Catalog

Two Line Element Set (TLE):
1 42970U 17064B   25199.47876919  .00007256  00000-0  24693-3 0  9994
2 42970  98.7287 164.5527 0194643  64.9316 297.1976 15.14569514424261
Source of the keplerian elements: AFSPC